Flag for Italy Weather past 2 weeks in Firenze, Italy

Now
79 °F

Passing clouds.


Feels Like: 81 °F
Forecast: 56 / 74 °F
Wind: 5 mph from North

Location: Florence / Peretola

Current Time: Sep 22, 2014 at 2:18:09 PM

Latest Report: Sep 22, 2014 at 1:50 PM


Visibility: N/A

Pressure: 29.80 "Hg

Humidity: 61%

Dew point: 64 °F

Location of FirenzeLocation

Historic Weather in Firenze — Graph

°F

Firenze temperature yesterday

Maximum temperature yesterday: 81 °F (at 12:50 PM)
Minimum temperature yesterday: 66 °F (at 1:20 AM)
Average temperature yesterday: 73 °F

Past Weeks' High & Low Weather Summary

 TemperatureHumidityPressure
High86 °F (Sep 8, 4:20 PM)100% (Sep 10, 10:20 AM)30.12 "Hg (Sep 10, 10:20 AM)
Low54 °F (Sep 13, 3:50 AM)32% (Sep 16, 2:20 PM)29.77 "Hg (Sep 11, 6:50 AM)
Average70 °F75%29.95 "Hg
* Reported Sep 7 12:20 PM — Sep 22 12:50 PM, Firenze, Weather by CustomWeather, © 2014

Note: Actual official high and low records may vary slightly from our data, if they occured in-between our weather recording intervals... More about our weather records

Advertising

Firenze weather history for previous 24 hours

 ConditionsComfort  
Time TempWeatherWind HumidityBarometerVisibility
12:50 PM
Sep 22
77 °FPassing clouds.2 mph65%29.83 "HgN/A
12:20 PM75 °FPassing clouds.3 mph69%29.83 "HgN/A
11:50 AM75 °FPassing clouds.1 mph74%29.83 "HgN/A
11:20 AM73 °FPartly sunny.2 mph83%29.86 "HgN/A
10:50 AM72 °FPartly sunny.No wind83%29.86 "HgN/A
10:20 AM70 °FPartly sunny.3 mph88%29.86 "HgN/A
9:50 AM68 °FPartly sunny.1 mph94%29.86 "HgN/A
9:20 AM68 °FPartly sunny.2 mph88%29.86 "HgN/A
8:50 AM66 °FPartly sunny.2 mph94%29.86 "HgN/A
8:20 AM66 °FPartly sunny.No wind94%29.86 "HgN/A
7:50 AM64 °FPassing clouds.2 mph100%29.86 "HgN/A
7:20 AM64 °FPassing clouds.1 mph94%29.86 "HgN/A
6:50 AM64 °FPassing clouds.No wind94%29.86 "HgN/A
6:20 AM64 °FPassing clouds.3 mph100%29.86 "HgN/A
5:50 AM66 °FPassing clouds.2 mph94%29.86 "HgN/A
5:20 AM64 °FLight rain. Passing clouds.5 mph100%29.86 "HgN/A
4:50 AM66 °FHeavy rain. Passing clouds.6 mph94%29.86 "Hg3 mi
4:20 AM68 °FPassing clouds.5 mph94%29.86 "HgN/A
3:50 AM68 °FRain. Passing clouds.1 mph94%29.86 "Hg5 mi
3:20 AM68 °FPassing clouds.2 mph94%29.86 "HgN/A
2:50 AM68 °FPassing clouds.3 mph88%29.89 "HgN/A
2:20 AM68 °FPassing clouds.2 mph94%29.89 "HgN/A
1:50 AM68 °FPassing clouds.3 mph88%29.89 "HgN/A
12:50 AM70 °FPassing clouds.2 mph83%29.92 "HgN/A
12:20 AM70 °FPassing clouds.3 mph88%29.92 "HgN/A
11:50 PM
Sep 21
70 °FPassing clouds.3 mph88%29.92 "HgN/A
11:20 PM68 °FPassing clouds.No wind94%29.92 "HgN/A
10:50 PM70 °FPassing clouds.No wind83%29.92 "HgN/A
10:20 PM70 °FPassing clouds.No wind83%29.92 "HgN/A
9:50 PM70 °FPassing clouds.2 mph83%29.92 "HgN/A
9:20 PM72 °FPassing clouds.2 mph78%29.92 "HgN/A
8:50 PM73 °FPassing clouds.5 mph74%29.92 "HgN/A
8:20 PM73 °FPassing clouds.6 mph69%29.92 "HgN/A
7:50 PM75 °FScattered clouds.2 mph65%29.92 "HgN/A
7:20 PM75 °FPassing clouds.5 mph65%29.92 "HgN/A
6:50 PM77 °FPassing clouds.6 mph61%29.92 "HgN/A
6:20 PM77 °FPassing clouds.7 mph61%29.92 "HgN/A
5:50 PM79 °FPassing clouds.8 mph58%29.92 "HgN/A
5:20 PM79 °FPassing clouds.8 mph58%29.92 "HgN/A
4:50 PM79 °FPassing clouds.9 mph58%29.92 "HgN/A
4:20 PM79 °FPassing clouds.10 mph58%29.95 "HgN/A
3:50 PM81 °FPassing clouds.9 mph54%29.95 "HgN/A
3:20 PM81 °FScattered clouds.8 mph58%29.95 "HgN/A
2:50 PM81 °FScattered clouds.9 mph54%29.95 "HgN/A
2:20 PM81 °FScattered clouds.12 mph54%29.95 "HgN/A
Weather by CustomWeather, © 2014

See weather overviewHow to use our weather pages